Regional Weather Roundup
Issued by NWS

Home | Current Version | Previous Version | Graphics & Text | Print | Product List | Glossary On
Versions: 1 2 3 4 5 6 7 8 9 10 11 12 13 14 15 16 17 18 19 20 21 22 23 24 25 26 27 28 29 30 31 32 33 34 35 36 37 38 39 40 41 42 43 44 45 46 47 48 49 50
000
ASUS43 KIND 010809
RWRIN

WEATHER ROUNDUP FOR INDIANA
NATIONAL WEATHER SERVICE INDIANAPOLIS IN
400 AM EDT WED JUL 01 2015

NOTE: "FAIR" INDICATES FEW OR NO CLOUDS BELOW 12,000 FEET WITH NO
SIGNIFICANT WEATHER AND/OR OBSTRUCTIONS TO VISIBILITY.

* - STATION DOES NOT REPORT WEATHER SUCH AS PRECIPITATION OR FOG.

+ - STATION NOT QUALITY CONTROLLED BY THE NATIONAL WEATHER SERVICE.
    USE DATA WITH CAUTION...ESPECIALLY DEWPOINT AND RELATIVE
    HUMIDITY OBSERVATIONS.

INZ001>003-010>013-019-020-010900-
NORTHWEST INDIANA

CITY           SKY/WX    TMP DP  RH WIND       PRES   REMARKS
GARY /AIRPORT/ MOCLDY   N/A N/A N/A N6        29.93S
KNOX *+        MOCLDY    55  55 100 NW3       29.90S
LA PORTE +     PTCLDY    58  58 100 NW5       29.92R
MICHIGAN CITY+ PTCLDY    54  54 100 W5        29.93R
MONTICELLO +   CLEAR     58  58 100 CALM      29.91R
RENSSELAER +   MOCLDY    59  59 100 CALM      29.92R FOG
VALPARAISO     MOCLDY    58  55  90 N5        29.92R

$$

LMZ046-743>745-010900-
SOUTHERN LAKE MICHIGAN

STATION/POSITION TIME  TEMP    WIND        PRES    WAVE
                       AIR SEA DIR/SP/G            HT
                 (UTC) (F)     (DEG/KT/KT) (MB)    (FT)
BURNS HARBOR     0800   60     360/ 10/ 11 1013.9S
MICHIGAN CITY    0800   58     300/  9/ 10   N/A
5NW MICH CITY    0800   59 65  330/  8/ 12   N/A     4

$$

INZ004-005-014>016-021>024-010900-
NORTH CENTRAL INDIANA

CITY           SKY/WX    TMP DP  RH WIND       PRES   REMARKS
GOSHEN         CLEAR     56  54  93 W8        29.89R
LOGANSPORT +   CLEAR     59  55  88 NW3       29.91S
PERU/GRISSOM   CLEAR     60  57  91 NW5       29.89S
ROCHESTER +    CLEAR     59  59 100 NW3       29.90S
SOUTH BEND     CLEAR     57  54  89 W9        29.91R
WARSAW +         N/A     55  54  94 NW6       29.89S

$$

INZ006>009-017-018-025>027-010900-
NORTHEAST INDIANA

CITY           SKY/WX    TMP DP  RH WIND       PRES   REMARKS
ANGOLA *+      CLEAR     57  55  94 NW3       29.86S
AUBURN +       PTCLDY    57  54  88 W6        29.87S
FORT WAYNE     PTCLDY    59  56  89 W7        29.88R
HUNTINGTON +   CLEAR     58  56  94 W5        29.89R

$$

INZ028-029-035-036-043>045-051>053-010900-
WEST CENTRAL INDIANA

CITY           SKY/WX    TMP DP  RH WIND       PRES   REMARKS
CRAWFORDSVL +  FOG       58  57  97 CALM      29.91S VSB 1/2
GREENCASTLE +  CLEAR     61  57  88 CALM      29.90S FOG
LAFAYETTE      CLEAR     60  57  89 N5        29.91R
TERRE HAUTE    FOG       63  62  97 CALM      29.89S VSB 1

$$

INZ030>032-037>040-046>048-054>057-064-065-010900-
CENTRAL INDIANA

CITY           SKY/WX    TMP DP  RH WIND       PRES   REMARKS
CP ATTERBURY + CLEAR     59  59 100 CALM      29.90R FOG
FISHERS *+     MOCLDY    61  61 100 CALM      29.90R
FRANKFORT +    MOCLDY   N/A N/A N/A CALM      29.93R HAZE
GREENWOOD *+   CLEAR     61  59  94 CALM      29.91R
INDIANAPOLIS   PTCLDY    64  61  90 CALM      29.89R
-EAGLE CREEK   PTCLDY    65  63  93 CALM      29.90R
KOKOMO *+      CLEAR     61  55  82 NW5       29.90S
MARION +       CLEAR     58  57  97 NW3       29.91R
MT COMFORT *+  PTCLDY    61 N/A N/A CALM      29.91R
SHELBYVILLE    CLEAR     61  58  90 N5        29.89R FOG
ZIONSVILLE +   CLEAR     61  58  90 CALM      29.92R FOG

$$

INZ033-034-041-042-049-050-058-059-010900-
EAST CENTRAL INDIANA

CITY           SKY/WX    TMP DP  RH WIND       PRES   REMARKS
MUNCIE         CLEAR     62  58  86 W6        29.90R

$$

INZ060-061-067>069-081>083-085>088-010900-
SOUTHWEST INDIANA

CITY           SKY/WX    TMP DP  RH WIND       PRES   REMARKS
EVANSVILLE     MOCLDY    72  68  87 W6        29.90R
HUNTINGBURG *+ CLEAR     68  64  88 CALM      29.90R
WASHINGTON +   CLOUDY    66  63  87 CALM      29.89S

$$

INZ062-063-066-070>080-084-089>092-010900-
SOUTH CENTRAL AND SOUTHEAST INDIANA

CITY           SKY/WX    TMP DP  RH WIND       PRES   REMARKS
BLOOMINGTON    FOG       61  60  97 CALM      29.90R VSB 3/4
MADISON *+       N/A     63  61  94 CALM      29.91R VSB 3/4
NORTH VERNON + FOG       61  61 100 CALM      29.90R VSB 1/4
SEYMOUR +      FOG       64  64 100 CALM      29.89R VSB 1/4

$$




USA.gov is the U.S. government's official web portal to all federal, state and local government web resources and services.